Dewpoint
67 66 67 68 69 68 67 68 68 67 66 65 63 62 62 61 61 61 60 60 61 61 61 62 62 62 62 61 61 55 48 44
67 67 66 67 67 67 67 67 66 66 65 64 63 63 61 61 60 61 61 62 62 62 62 63 63 63 62 62 61 60 47 45
66 65 65 65 64 67 66 67 66 65 64 63 61 58 58 57 61 62 63 63 63 63 63 64 63 63 61 60 60 45 47 44
65 66 66 66 61 63 62 58 57 58 59 61 59 62 61 59 61 62 61 62 62 60 60 61 60 49 48 55 45 49 46 46
64 66 66 64 61 59 56 56 58 60 63 62 62 62 62 59 57 56 57 57 53 53 52 49 53 52 48 49 48 46 43 43
64 65 65 63 58 55 56 57 59 60 61 63 64 61 60 58 54 55 57 54 53 51 49 52 52 50 50 49 47 44 41 41
61 62 62 62 59 58 59 60 61 62 63 63 62 61 61 58 57 54 52 50 49 48 47 46 46 45 47 45 43 44 44 41
61 60 60 59 59 60 60 60 60 61 62 61 60 61 61 58 53 50 49 49 47 45 46 43 42 43 41 44 42 42 41 44
61 61 60 60 60 59 60 59 60 58 59 60 58 58 57 53 50 51 48 47 45 44 43 42 41 39 40 40 40 40 39 42
61 61 61 61 61 60 60 60 58 55 55 55 52 49 51 51 50 48 46 44 43 42 42 39 39 39 39 36 37 37 36 43
61 62 62 62 60 59 57 57 53 52 52 50 50 47 47 48 45 45 45 42 43 41 40 40 37 37 34 32 34 34 35 34
62 62 62 62 61 57 53 49 49 49 48 45 44 43 45 45 44 45 41 39 38 39 40 38 38 38 33 31 35 33 33 37
61 61 61 59 56 53 49 49 49 47 44 44 44 43 42 43 40 40 41 39 42 42 39 38 35 38 35 29 28 30 36 36
59 59 58 56 53 49 50 51 48 43 43 44 41 41 39 38 42 40 40 38 40 42 40 36 32 35 36 33 26 25 26 32
54 52 51 50 51 49 49 48 45 43 41 40 41 41 39 40 42 41 41 39 36 40 40 39 35 34 35 33 29 25 26 27
49 48 47 46 44 45 47 43 42 42 42 41 40 43 43 41 40 42 41 39 39 39 36 38 35 30 31 28 31 30 26 24
45 44 43 45 45 46 44 43 41 40 41 41 42 42 42 40 40 40 40 39 40 40 38 35 34 33 29 29 29 26 25 21
45 43 42 43 43 44 44 42 40 39 39 36 33 31 29 30 30 39 41 40 41 38 37 36 34 31 27 25 23 22 20 19
42 40 40 41 42 40 40 38 34 30 27 25 26 23 24 27 32 35 38 40 38 38 36 37 32 28 27 24 23 23 22 21
41 39 38 36 34 31 30 27 24 23 26 27 25 26 26 32 35 37 39 39 38 38 37 34 32 29 29 27 25 23 22 22
Lifted_Index
-7 -7 -7 -6 -6 -6 -5 -4 -3 -3 -2 -1 0 1 1 1 1 1 0 0 0 0 0 0 0 1 2 2 3 4 4 4
-7 -7 -7 -6 -6 -5 -4 -3 -3 -2 -1 -0 0 1 0 1 1 0 -0 -0 -0 -0 -0 0 0 1 2 2 3 4 4 4
-7 -7 -6 -6 -5 -4 -3 -2 -2 -1 -1 -0 -0 -0 -0 -0 0 -0 -0 -0 -0 0 0 0 1 1 2 2 3 3 3 4
-6 -6 -6 -5 -4 -3 -2 -1 -1 -1 -1 -1 -1 -2 -2 -1 -1 -0 -0 0 1 1 1 1 1 2 2 2 3 3 3 3
-5 -5 -5 -4 -3 -2 -1 -1 -1 -2 -2 -2 -3 -3 -3 -2 -1 -1 -0 1 1 2 2 2 2 2 3 3 3 4 4 4
-5 -5 -5 -4 -3 -2 -1 -1 -2 -3 -3 -3 -3 -3 -3 -2 -1 -1 0 1 2 2 2 2 3 3 3 3 4 5 5 5
-4 -4 -4 -3 -2 -2 -1 -2 -2 -2 -3 -3 -3 -2 -2 -2 -1 -0 1 2 2 3 3 3 4 4 4 5 5 6 6 6
-4 -4 -3 -2 -2 -1 -1 -0 -0 -1 -2 -2 -1 -1 -0 -1 -0 0 1 2 3 3 4 4 5 5 5 6 6 7 7 7
-4 -3 -3 -2 -1 -1 0 1 1 1 -0 -1 -1 0 0 1 1 2 3 3 4 4 5 5 6 6 6 7 7 8 8 8
-4 -3 -3 -2 -1 0 1 1 1 1 0 -0 0 1 2 2 3 3 4 5 5 5 6 6 6 7 7 8 8 8 8 8
-4 -3 -3 -2 -1 -0 0 1 1 1 1 1 2 3 3 4 4 5 5 6 6 6 7 7 8 8 8 9 9 9 9 8
-4 -3 -3 -2 -1 -0 1 1 1 2 2 3 4 4 5 5 5 6 6 7 7 7 8 8 8 9 9 9 9 9 9 8
-3 -3 -3 -2 -1 0 1 2 2 3 4 5 5 5 6 6 6 7 7 7 7 8 8 8 9 9 9 9 9 9 9 8
-3 -2 -2 -1 0 1 2 2 3 4 5 5 6 6 6 6 6 7 7 7 8 8 8 9 9 9 9 10 10 10 10 9
-0 0 1 2 2 3 3 3 4 5 5 5 6 6 6 7 7 7 7 8 8 8 9 9 10 10 10 11 11 11 11 11
2 3 4 4 4 4 4 4 4 5 5 6 6 6 7 7 7 8 8 9 9 9 10 11 11 11 11 11 12 12 12 12
5 5 5 5 5 5 5 5 5 6 6 7 7 8 8 8 9 9 9 9 10 10 11 11 12 12 12 12 12 12 12 12
6 5 5 5 6 6 6 7 8 8 9 9 10 10 11 11 11 10 10 10 10 11 11 12 12 12 13 13 13 12 12 11
6 6 6 6 7 8 9 10 11 11 12 12 12 12 12 12 12 11 10 10 11 11 12 12 12 13 13 13 12 11 10 9
6 6 6 7 9 9 10 11 12 13 13 13 13 13 13 13 12 11 11 11 11 11 11 12 12 12 12 12 11 9 8 7